Change the Weather History Date:

Monday, May 21, 2007

  Actual Average Record
Temperature  
Mean Temperature 63 °F 59 °F  
Max Temperature 79 °F 73 °F 91 °F (2006)
Min Temperature 46 °F 44 °F 31 °F (2001)
Degree Days  
Heating Degree Days 2 7  
Month to date heating degree days 145 210  
Since 1 July heating degree days 6085 5941  
Cooling Degree Days 0 1  
Month to date cooling degree days 9 6  
Year to date cooling degree days 14 7  
Growing Degree Days 12 (Base 50)    
Moisture  
Dew Point 42 °F    
Average Humidity 54    
Maximum Humidity 83    
Minimum Humidity 25    
Precipitation  
Precipitation T in 0.07 in 1.94 in (1914)
Month to date precipitation 0.74 1.40  
Year to date precipitation 4.87 4.81  
Snow  
Snow 0.00 in - - ()
Month to date snowfall 0  
Since 1 July snowfall 72.6  
Snow Depth 0.00 in    
Sea Level Pressure  
Sea Level Pressure 29.54 in    
Wind  
Wind Speed 8 mph (SW)    
Max Wind Speed 33 mph    
Max Gust Speed 44 mph    
Visibility 10 miles    
Events Rain , Thunderstorm    
T = Trace of Precipitation, MM = Missing Value Source: NWS Daily Summary

Daily Weather History Graph

Daily Weather History Graph

Search for Another Location

Airport or City:

Trip Planner

Search our weather history database for the weather conditions in past years. The results will help you decide how hot, cold, wet, or windy it might be!

Date:

Astronomy

May. 21, 2007 Rise Set
Actual Time 5:38 AM MDT 8:11 PM MDT
Civil Twilight 5:07 AM MDT 8:43 PM MDT
Nautical Twilight 4:29 AM MDT 9:21 PM MDT
Astronomical Twilight 3:45 AM MDT 10:05 PM MDT
Moon 10:15 AM MDT (5/21) 12:38 AM MDT (5/21)
Length of Visible Light 15h 35m
Length of Day
14h 33m
Waxing Crescent, 29% of the Moon is Illuminated
May 21
Waxing Crescent
May 23
First Quarter
May 31
Full
Jun 8
Last Quarter
Jun 14
New

Hourly Weather History & Observations

Time (MDT) Temp. Windchill Dew Point Humidity Pressure Visibility Wind Dir Wind Speed Gust Speed Precip Events Conditions
12:53 AM 57.9 °F - 43.0 °F 58% 29.59 in 10.0 mi SSW 16.1 mph - N/A   Mostly Cloudy
1:53 AM 54.0 °F - 42.1 °F 64% 29.58 in 10.0 mi WSW 9.2 mph - N/A   Scattered Clouds
2:53 AM 54.0 °F - 41.0 °F 62% 29.58 in 10.0 mi SW 9.2 mph - N/A   Scattered Clouds
3:53 AM 53.1 °F - 41.0 °F 64% 29.58 in 10.0 mi WSW 11.5 mph - N/A   Scattered Clouds
4:53 AM 52.0 °F - 41.0 °F 66% 29.59 in 10.0 mi SW 9.2 mph - N/A   Clear
5:53 AM 46.0 °F 43.1 °F 41.0 °F 83% 29.61 in 10.0 mi ESE 5.8 mph - N/A   Scattered Clouds
6:53 AM 52.0 °F - 44.1 °F 74% 29.60 in 10.0 mi SSE 5.8 mph - N/A   Mostly Cloudy
7:53 AM 60.1 °F - 43.0 °F 53% 29.58 in 10.0 mi SW 10.4 mph - N/A   Mostly Cloudy
8:53 AM 64.9 °F - 44.1 °F 47% 29.57 in 10.0 mi West 5.8 mph - N/A   Mostly Cloudy
9:53 AM 70.0 °F - 39.9 °F 33% 29.56 in 10.0 mi Calm Calm - N/A   Mostly Cloudy
10:53 AM 73.0 °F - 37.9 °F 28% 29.52 in 10.0 mi Calm Calm - N/A   Mostly Cloudy
11:53 AM 75.0 °F - 39.0 °F 27% 29.51 in 10.0 mi Calm Calm - N/A   Mostly Cloudy
12:53 PM 75.9 °F - 37.9 °F 25% 29.47 in 10.0 mi Calm Calm - N/A   Mostly Cloudy
1:53 PM 79.0 °F - 39.9 °F 25% 29.44 in 10.0 mi East 9.2 mph - N/A   Mostly Cloudy
2:53 PM 75.0 °F - 39.9 °F 28% 29.46 in 10.0 mi ENE 5.8 mph 16.1 mph N/A   Mostly Cloudy
3:34 PM 71.6 °F - 35.6 °F 27% 29.67 in 10.0 mi WNW 8.1 mph - N/A   Mostly Cloudy
3:39 PM 73.4 °F - 33.8 °F 23% 29.66 in 10.0 mi NW 19.6 mph 29.9 mph N/A Thunderstorm Thunderstorm
3:53 PM 68.0 °F - 37.9 °F 33% 29.50 in 10.0 mi NNW 34.5 mph 43.7 mph 0.00 in Rain , Thunderstorm Light Thunderstorms and Rain
4:17 PM 62.6 °F - 46.4 °F 55% 29.70 in 10.0 mi NW 25.3 mph 39.1 mph 0.00 in Rain Light Rain
4:50 PM 64.4 °F - 44.6 °F 49% 29.66 in 10.0 mi NNW 8.1 mph - 0.00 in   Mostly Cloudy
4:53 PM 64.0 °F - 44.1 °F 48% 29.49 in 10.0 mi North 6.9 mph - 0.00 in   Mostly Cloudy
5:53 PM 71.1 °F - 41.0 °F 34% 29.48 in 10.0 mi South 10.4 mph - N/A   Mostly Cloudy
6:53 PM 66.0 °F - 46.0 °F 48% 29.46 in 10.0 mi SSE 15.0 mph - N/A   Mostly Cloudy
7:53 PM 63.0 °F - 44.1 °F 50% 29.44 in 10.0 mi South 8.1 mph - N/A   Mostly Cloudy
8:53 PM 62.1 °F - 43.0 °F 50% 29.44 in 10.0 mi West 3.5 mph - N/A   Mostly Cloudy
9:53 PM 61.0 °F - 43.0 °F 52% 29.47 in 10.0 mi East 4.6 mph - N/A   Mostly Cloudy
10:53 PM 55.0 °F - 46.0 °F 72% 29.46 in 10.0 mi SSE 8.1 mph - N/A   Scattered Clouds
11:53 PM 55.9 °F - 43.0 °F 62% 29.44 in 10.0 mi South 11.5 mph - N/A   Scattered Clouds